Time,TemperatureF,DewpointF,PressureIn,WindDirection,WindDirectionDegrees,WindSpeedMPH,WindSpeedGustMPH,Humidity,HourlyPrecipIn,Conditions,Clouds,dailyrainin,SoftwareType,DateUTC
2013-01-17 00:01:00,33.6,23.8,29.99,West,270,7.0,12.0,67,0.00,,,-99.99,WeatherLink 5.7,2013-01-17 05:01:00,
2013-01-17 00:11:00,33.8,24.0,29.99,West,270,8.0,15.0,67,0.00,,,-99.99,WeatherLink 5.7,2013-01-17 05:11:00,
2013-01-17 00:21:00,33.8,24.4,29.99,West,270,7.0,17.0,68,0.00,,,-99.99,WeatherLink 5.7,2013-01-17 05:21:00,
2013-01-17 00:31:00,33.9,24.4,30.00,West,270,7.0,13.0,68,0.00,,,-99.99,WeatherLink 5.7,2013-01-17 05:31:00,
2013-01-17 00:41:00,33.9,24.4,29.99,West,270,7.0,12.0,68,0.00,,,-99.99,WeatherLink 5.7,2013-01-17 05:41:00,
2013-01-17 00:51:00,34.0,24.5,30.00,West,270,7.0,12.0,68,0.00,,,-99.99,WeatherLink 5.7,2013-01-17 05:51:00,
2013-01-17 01:01:00,34.0,24.9,30.00,West,270,6.0,11.0,69,0.00,,,-99.99,WeatherLink 5.7,2013-01-17 06:01:00,
2013-01-17 01:11:00,34.1,25.0,30.01,West,270,7.0,13.0,69,0.00,,,-99.99,WeatherLink 5.7,2013-01-17 06:11:00,
2013-01-17 01:21:00,34.1,25.0,30.01,West,270,7.0,11.0,69,0.00,,,-99.99,WeatherLink 5.7,2013-01-17 06:21:00,
2013-01-17 01:31:00,34.2,25.1,30.01,West,270,6.0,12.0,69,0.00,,,-99.99,WeatherLink 5.7,2013-01-17 06:31:00,
2013-01-17 01:41:00,34.3,25.5,30.02,West,270,6.0,13.0,70,0.00,,,-99.99,WeatherLink 5.7,2013-01-17 06:41:00,
2013-01-17 01:51:00,34.4,25.6,30.02,West,270,6.0,11.0,70,0.00,,,-99.99,WeatherLink 5.7,2013-01-17 06:51:00,
2013-01-17 02:01:00,34.4,25.6,30.03,West,270,5.0,9.0,70,0.00,,,-99.99,WeatherLink 5.7,2013-01-17 07:01:00,
2013-01-17 02:11:00,34.4,25.6,30.03,West,270,5.0,9.0,70,0.00,,,-99.99,WeatherLink 5.7,2013-01-17 07:11:00,
2013-01-17 02:21:00,34.4,25.6,30.04,West,270,5.0,9.0,70,0.00,,,-99.99,WeatherLink 5.7,2013-01-17 07:21:00,
2013-01-17 02:31:00,34.4,26.0,30.05,West,270,5.0,8.0,71,0.00,,,-99.99,WeatherLink 5.7,2013-01-17 07:31:00,
2013-01-17 02:41:00,34.4,25.6,30.05,West,270,7.0,13.0,70,0.00,,,-99.99,WeatherLink 5.7,2013-01-17 07:41:00,
2013-01-17 02:51:00,34.5,25.7,30.06,West,270,4.0,8.0,70,0.00,,,-99.99,WeatherLink 5.7,2013-01-17 07:51:00,
2013-01-17 03:01:00,34.5,25.7,30.06,West,270,4.0,8.0,70,0.00,,,-99.99,WeatherLink 5.7,2013-01-17 08:01:00,
2013-01-17 03:11:00,34.5,25.7,30.06,West,270,3.0,6.0,70,0.00,,,-99.99,WeatherLink 5.7,2013-01-17 08:11:00,
2013-01-17 03:21:00,34.4,25.6,30.07,West,270,5.0,8.0,70,0.00,,,-99.99,WeatherLink 5.7,2013-01-17 08:21:00,
2013-01-17 03:31:00,34.5,25.7,30.07,West,270,3.0,6.0,70,0.00,,,-99.99,WeatherLink 5.7,2013-01-17 08:31:00,
2013-01-17 03:41:00,34.5,25.7,30.07,West,270,4.0,8.0,70,0.00,,,-99.99,WeatherLink 5.7,2013-01-17 08:41:00,
2013-01-17 03:51:00,34.4,25.6,30.06,West,270,3.0,6.0,70,0.00,,,-99.99,WeatherLink 5.7,2013-01-17 08:51:00,
2013-01-17 04:01:00,34.4,25.6,30.07,West,270,3.0,7.0,70,0.00,,,-99.99,WeatherLink 5.7,2013-01-17 09:01:00,
2013-01-17 04:11:00,34.4,25.6,30.06,West,270,4.0,7.0,70,0.00,,,-99.99,WeatherLink 5.7,2013-01-17 09:11:00,
2013-01-17 04:21:00,34.3,25.5,30.06,West,270,3.0,6.0,70,0.00,,,-99.99,WeatherLink 5.7,2013-01-17 09:21:00,
2013-01-17 04:31:00,34.1,25.3,30.07,West,270,4.0,7.0,70,0.00,,,-99.99,WeatherLink 5.7,2013-01-17 09:31:00,
2013-01-17 04:41:00,33.5,25.1,30.06,West,270,3.0,6.0,71,0.00,,,-99.99,WeatherLink 5.7,2013-01-17 09:41:00,
2013-01-17 04:51:00,33.1,25.1,30.07,West,270,4.0,7.0,72,0.00,,,-99.99,WeatherLink 5.7,2013-01-17 09:51:00,
2013-01-17 05:01:00,32.8,25.1,30.08,WNW,292,5.0,8.0,73,0.00,,,-99.99,WeatherLink 5.7,2013-01-17 10:01:00,
2013-01-17 05:11:00,32.8,25.4,30.08,WNW,292,4.0,8.0,74,0.00,,,-99.99,WeatherLink 5.7,2013-01-17 10:11:00,
2013-01-17 05:21:00,33.1,25.7,30.09,WNW,292,4.0,8.0,74,0.00,,,-99.99,WeatherLink 5.7,2013-01-17 10:21:00,
2013-01-17 05:31:00,33.2,25.8,30.09,WNW,292,5.0,9.0,74,0.00,,,-99.99,WeatherLink 5.7,2013-01-17 10:31:00,
2013-01-17 05:41:00,33.3,25.9,30.09,WNW,292,5.0,9.0,74,0.00,,,-99.99,WeatherLink 5.7,2013-01-17 10:41:00,
2013-01-17 05:51:00,33.4,25.7,30.10,WNW,292,5.0,8.0,73,0.00,,,-99.99,WeatherLink 5.7,2013-01-17 10:51:00,
2013-01-17 06:01:00,33.4,25.7,30.10,WNW,292,5.0,8.0,73,0.00,,,-99.99,WeatherLink 5.7,2013-01-17 11:01:00,
2013-01-17 06:11:00,33.1,25.4,30.11,WNW,292,4.0,7.0,73,0.00,,,-99.99,WeatherLink 5.7,2013-01-17 11:11:00,
2013-01-17 06:21:00,32.3,24.6,30.11,WNW,292,4.0,7.0,73,0.00,,,-99.99,WeatherLink 5.7,2013-01-17 11:21:00,
2013-01-17 06:31:00,31.6,24.3,30.11,WNW,292,3.0,5.0,74,0.00,,,-99.99,WeatherLink 5.7,2013-01-17 11:31:00,
2013-01-17 06:41:00,31.0,24.0,30.11,WNW,292,1.0,4.0,75,0.00,,,-99.99,WeatherLink 5.7,2013-01-17 11:41:00,
2013-01-17 06:51:00,30.5,23.5,30.12,WNW,292,0.0,3.0,75,0.00,,,-99.99,WeatherLink 5.7,2013-01-17 11:51:00,
2013-01-17 07:01:00,30.1,23.4,30.12,WNW,292,2.0,4.0,76,0.00,,,-99.99,WeatherLink 5.7,2013-01-17 12:01:00,
2013-01-17 07:11:00,29.8,23.5,30.12,WNW,292,3.0,4.0,77,0.00,,,-99.99,WeatherLink 5.7,2013-01-17 12:11:00,
2013-01-17 07:21:00,29.5,23.2,30.13,WNW,292,2.0,4.0,77,0.00,,,-99.99,WeatherLink 5.7,2013-01-17 12:21:00,
2013-01-17 07:31:00,29.3,23.0,30.13,WNW,292,2.0,4.0,77,0.00,,,-99.99,WeatherLink 5.7,2013-01-17 12:31:00,
2013-01-17 07:41:00,29.0,23.0,30.14,WNW,292,3.0,4.0,78,0.00,,,-99.99,WeatherLink 5.7,2013-01-17 12:41:00,
2013-01-17 07:51:00,28.8,22.8,30.14,WNW,292,1.0,3.0,78,0.00,,,-99.99,WeatherLink 5.7,2013-01-17 12:51:00,
2013-01-17 08:01:00,28.6,22.6,30.14,WNW,292,1.0,4.0,78,0.00,,,-99.99,WeatherLink 5.7,2013-01-17 13:01:00,
2013-01-17 08:11:00,28.4,22.4,30.14,WNW,292,1.0,4.0,78,0.00,,,-99.99,WeatherLink 5.7,2013-01-17 13:11:00,
2013-01-17 08:21:00,28.1,22.4,30.14,WNW,292,2.0,4.0,79,0.00,,,-99.99,WeatherLink 5.7,2013-01-17 13:21:00,
2013-01-17 08:31:00,28.2,22.5,30.14,WNW,292,2.0,3.0,79,0.00,,,-99.99,WeatherLink 5.7,2013-01-17 13:31:00,
2013-01-17 08:41:00,28.0,22.3,30.15,WNW,292,1.0,3.0,79,0.00,,,-99.99,WeatherLink 5.7,2013-01-17 13:41:00,
2013-01-17 08:51:00,27.8,22.1,30.15,WNW,292,0.0,3.0,79,0.00,,,-99.99,WeatherLink 5.7,2013-01-17 13:51:00,
2013-01-17 09:01:00,27.9,22.5,30.15,WNW,292,0.0,2.0,80,0.00,,,-99.99,WeatherLink 5.7,2013-01-17 14:01:00,
2013-01-17 09:11:00,28.0,22.6,30.17,WNW,292,1.0,3.0,80,0.00,,,-99.99,WeatherLink 5.7,2013-01-17 14:11:00,
2013-01-17 09:21:00,28.0,22.9,30.17,WNW,292,2.0,5.0,81,0.00,,,-99.99,WeatherLink 5.7,2013-01-17 14:21:00,
2013-01-17 09:31:00,28.3,23.2,30.17,WNW,292,2.0,4.0,81,0.00,,,-99.99,WeatherLink 5.7,2013-01-17 14:31:00,
2013-01-17 09:41:00,28.9,23.8,30.18,WNW,292,2.0,4.0,81,0.00,,,-99.99,WeatherLink 5.7,2013-01-17 14:41:00,
2013-01-17 09:51:00,29.8,25.0,30.18,WNW,292,2.0,5.0,82,0.00,,,-99.99,WeatherLink 5.7,2013-01-17 14:51:00,
2013-01-17 10:01:00,31.4,25.9,30.18,WNW,292,2.0,5.0,80,0.00,,,-99.99,WeatherLink 5.7,2013-01-17 15:01:00,
2013-01-17 10:11:00,33.1,26.4,30.19,WNW,292,3.0,6.0,76,0.00,,,-99.99,WeatherLink 5.7,2013-01-17 15:11:00,
2013-01-17 10:21:00,34.6,25.8,30.19,NNW,337,4.0,10.0,70,0.00,,,-99.99,WeatherLink 5.7,2013-01-17 15:21:00,
2013-01-17 10:31:00,35.8,24.4,30.20,North,0,8.0,14.0,63,0.00,,,-99.99,WeatherLink 5.7,2013-01-17 15:31:00,
2013-01-17 10:41:00,35.5,24.1,30.20,North,0,6.0,12.0,63,0.00,,,-99.99,WeatherLink 5.7,2013-01-17 15:41:00,
2013-01-17 10:51:00,36.2,23.6,30.21,North,0,8.0,11.0,60,0.00,,,-99.99,WeatherLink 5.7,2013-01-17 15:51:00,
2013-01-17 11:01:00,37.1,23.7,30.20,North,0,7.0,11.0,58,0.00,,,-99.99,WeatherLink 5.7,2013-01-17 16:01:00,
2013-01-17 11:11:00,37.3,23.0,30.20,NNW,337,6.0,10.0,56,0.00,,,-99.99,WeatherLink 5.7,2013-01-17 16:11:00,
2013-01-17 11:21:00,37.3,22.6,30.20,NNW,337,5.0,11.0,55,0.00,,,-99.99,WeatherLink 5.7,2013-01-17 16:21:00,
2013-01-17 11:31:00,37.1,22.4,30.20,NNW,337,6.0,13.0,55,0.00,,,-99.99,WeatherLink 5.7,2013-01-17 16:31:00,
2013-01-17 11:41:00,36.7,22.0,30.20,WNW,292,8.0,13.0,55,0.00,,,-99.99,WeatherLink 5.7,2013-01-17 16:41:00,
2013-01-17 11:51:00,36.5,21.8,30.19,NW,315,7.0,14.0,55,0.00,,,-99.99,WeatherLink 5.7,2013-01-17 16:51:00,
2013-01-17 12:01:00,36.9,22.2,30.18,NW,315,7.0,14.0,55,0.00,,,-99.99,WeatherLink 5.7,2013-01-17 17:01:00,
2013-01-17 12:11:00,37.4,21.8,30.18,WNW,292,8.0,14.0,53,0.00,,,-99.99,WeatherLink 5.7,2013-01-17 17:11:00,
2013-01-17 12:21:00,37.6,21.5,30.18,WNW,292,9.0,15.0,52,0.00,,,-99.99,WeatherLink 5.7,2013-01-17 17:21:00,
2013-01-17 12:31:00,37.9,21.8,30.17,WNW,292,10.0,17.0,52,0.00,,,-99.99,WeatherLink 5.7,2013-01-17 17:31:00,
2013-01-17 12:41:00,38.1,22.0,30.16,WNW,292,9.0,18.0,52,0.00,,,-99.99,WeatherLink 5.7,2013-01-17 17:41:00,
2013-01-17 12:51:00,38.3,21.7,30.16,WNW,292,10.0,16.0,51,0.00,,,-99.99,WeatherLink 5.7,2013-01-17 17:51:00,
2013-01-17 13:01:00,38.4,21.4,30.15,WNW,292,9.0,15.0,50,0.00,,,-99.99,WeatherLink 5.7,2013-01-17 18:01:00,
2013-01-17 13:11:00,38.6,21.5,30.15,WNW,292,8.0,15.0,50,0.00,,,-99.99,WeatherLink 5.7,2013-01-17 18:11:00,
2013-01-17 13:21:00,39.1,21.5,30.15,WNW,292,8.0,14.0,49,0.00,,,-99.99,WeatherLink 5.7,2013-01-17 18:21:00,
2013-01-17 13:31:00,39.0,22.4,30.14,WNW,292,9.0,15.0,51,0.00,,,-99.99,WeatherLink 5.7,2013-01-17 18:31:00,
2013-01-17 13:41:00,39.3,22.2,30.14,WNW,292,10.0,17.0,50,0.00,,,-99.99,WeatherLink 5.7,2013-01-17 18:41:00,
2013-01-17 13:51:00,39.3,21.7,30.14,WNW,292,10.0,16.0,49,0.00,,,-99.99,WeatherLink 5.7,2013-01-17 18:51:00,
2013-01-17 14:01:00,38.1,21.5,30.14,WNW,292,9.0,14.0,51,0.00,,,-99.99,WeatherLink 5.7,2013-01-17 19:01:00,
2013-01-17 14:11:00,37.2,20.7,30.13,WNW,292,8.0,13.0,51,0.00,,,-99.99,WeatherLink 5.7,2013-01-17 19:11:00,
2013-01-17 14:21:00,37.1,21.1,30.13,WNW,292,9.0,15.0,52,0.00,,,-99.99,WeatherLink 5.7,2013-01-17 19:21:00,
2013-01-17 14:31:00,38.1,20.6,30.12,WNW,292,9.0,16.0,49,0.00,,,-99.99,WeatherLink 5.7,2013-01-17 19:31:00,
2013-01-17 14:41:00,38.4,20.9,30.12,WNW,292,9.0,17.0,49,0.00,,,-99.99,WeatherLink 5.7,2013-01-17 19:41:00,
2013-01-17 14:51:00,38.5,21.5,30.12,WNW,292,10.0,15.0,50,0.00,,,-99.99,WeatherLink 5.7,2013-01-17 19:51:00,
2013-01-17 15:01:00,38.2,20.7,30.12,WNW,292,12.0,22.0,49,0.00,,,-99.99,WeatherLink 5.7,2013-01-17 20:01:00,
2013-01-17 15:11:00,37.7,20.7,30.11,WNW,292,12.0,19.0,50,0.00,,,-99.99,WeatherLink 5.7,2013-01-17 20:11:00,
2013-01-17 15:21:00,37.3,20.3,30.11,NW,315,11.0,17.0,50,0.00,,,-99.99,WeatherLink 5.7,2013-01-17 20:21:00,
2013-01-17 15:31:00,37.2,20.2,30.11,WNW,292,12.0,18.0,50,0.00,,,-99.99,WeatherLink 5.7,2013-01-17 20:31:00,
2013-01-17 15:41:00,37.1,19.7,30.12,NW,315,11.0,20.0,49,0.00,,,-99.99,WeatherLink 5.7,2013-01-17 20:41:00,
2013-01-17 15:51:00,36.9,19.5,30.12,WNW,292,12.0,19.0,49,0.00,,,-99.99,WeatherLink 5.7,2013-01-17 20:51:00,
2013-01-17 16:01:00,36.4,17.6,30.13,NW,315,15.0,23.0,46,0.00,,,-99.99,WeatherLink 5.7,2013-01-17 21:01:00,
2013-01-17 16:11:00,35.7,17.9,30.13,WNW,292,13.0,22.0,48,0.00,,,-99.99,WeatherLink 5.7,2013-01-17 21:11:00,
2013-01-17 16:21:00,35.3,18.0,30.14,WNW,292,13.0,21.0,49,0.00,,,-99.99,WeatherLink 5.7,2013-01-17 21:21:00,
2013-01-17 16:31:00,34.9,17.7,30.14,WNW,292,10.0,19.0,49,0.00,,,-99.99,WeatherLink 5.7,2013-01-17 21:31:00,
2013-01-17 16:41:00,34.6,17.4,30.15,NW,315,9.0,17.0,49,0.00,,,-99.99,WeatherLink 5.7,2013-01-17 21:41:00,
2013-01-17 16:51:00,34.1,16.9,30.15,NW,315,12.0,21.0,49,0.00,,,-99.99,WeatherLink 5.7,2013-01-17 21:51:00,
2013-01-17 17:01:00,33.5,16.4,30.16,NW,315,12.0,19.0,49,0.00,,,-99.99,WeatherLink 5.7,2013-01-17 22:01:00,
2013-01-17 17:11:00,32.9,15.8,30.16,NW,315,12.0,23.0,49,0.00,,,-99.99,WeatherLink 5.7,2013-01-17 22:11:00,
2013-01-17 17:21:00,32.4,13.9,30.17,NNW,337,11.0,20.0,46,0.00,,,-99.99,WeatherLink 5.7,2013-01-17 22:21:00,
2013-01-17 17:31:00,31.8,13.8,30.18,NW,315,12.0,23.0,47,0.00,,,-99.99,WeatherLink 5.7,2013-01-17 22:31:00,
2013-01-17 17:41:00,31.0,13.6,30.18,NW,315,10.0,18.0,48,0.00,,,-99.99,WeatherLink 5.7,2013-01-17 22:41:00,
2013-01-17 17:51:00,30.4,13.5,30.19,NW,315,10.0,20.0,49,0.00,,,-99.99,WeatherLink 5.7,2013-01-17 22:51:00,
2013-01-17 18:01:00,29.9,13.5,30.20,NW,315,12.0,20.0,50,0.00,,,-99.99,WeatherLink 5.7,2013-01-17 23:01:00,
2013-01-17 18:11:00,29.4,13.5,30.20,NW,315,9.0,19.0,51,0.00,,,-99.99,WeatherLink 5.7,2013-01-17 23:11:00,
2013-01-17 18:21:00,29.0,12.7,30.22,NW,315,11.0,19.0,50,0.00,,,-99.99,WeatherLink 5.7,2013-01-17 23:21:00,
2013-01-17 18:31:00,28.5,12.2,30.22,NW,315,12.0,21.0,50,0.00,,,-99.99,WeatherLink 5.7,2013-01-17 23:31:00,
2013-01-17 18:41:00,28.0,11.3,30.23,NNW,337,13.0,24.0,49,0.00,,,-99.99,WeatherLink 5.7,2013-01-17 23:41:00,
2013-01-17 18:51:00,27.6,11.4,30.23,NW,315,12.0,23.0,50,0.00,,,-99.99,WeatherLink 5.7,2013-01-17 23:51:00,
2013-01-17 19:01:00,27.2,11.4,30.24,NW,315,13.0,22.0,51,0.00,,,-99.99,WeatherLink 5.7,2013-01-18 00:01:00,
2013-01-17 19:11:00,26.8,11.1,30.25,NW,315,12.0,24.0,51,0.00,,,-99.99,WeatherLink 5.7,2013-01-18 00:11:00,
2013-01-17 19:21:00,26.5,11.2,30.26,NW,315,11.0,20.0,52,0.00,,,-99.99,WeatherLink 5.7,2013-01-18 00:21:00,
2013-01-17 19:31:00,26.1,11.3,30.26,NW,315,13.0,21.0,53,0.00,,,-99.99,WeatherLink 5.7,2013-01-18 00:31:00,
2013-01-17 19:41:00,25.8,11.0,30.27,NW,315,12.0,23.0,53,0.00,,,-99.99,WeatherLink 5.7,2013-01-18 00:41:00,
2013-01-17 19:51:00,25.3,11.0,30.27,NW,315,13.0,21.0,54,0.00,,,-99.99,WeatherLink 5.7,2013-01-18 00:51:00,
2013-01-17 20:00:00,24.9,9.7,30.28,NW,315,14.0,25.0,52,0.00,,,-99.99,WeatherLink 5.7,2013-01-18 01:00:00,
2013-01-17 20:11:00,24.5,9.4,30.28,NW,315,15.0,21.0,52,0.00,,,-99.99,WeatherLink 5.7,2013-01-18 01:11:00,
2013-01-17 20:21:00,24.0,9.7,30.29,NW,315,13.0,19.0,54,0.00,,,-99.99,WeatherLink 5.7,2013-01-18 01:21:00,
2013-01-17 20:31:00,23.6,9.4,30.30,NW,315,11.0,20.0,54,0.00,,,-99.99,WeatherLink 5.7,2013-01-18 01:31:00,
2013-01-17 20:41:00,23.3,9.1,30.30,NW,315,10.0,22.0,54,0.00,,,-99.99,WeatherLink 5.7,2013-01-18 01:41:00,
2013-01-17 20:51:00,23.0,8.4,30.30,NW,315,11.0,18.0,53,0.00,,,-99.99,WeatherLink 5.7,2013-01-18 01:51:00,
2013-01-17 21:01:00,22.6,7.2,30.30,NW,315,13.0,21.0,51,0.00,,,-99.99,WeatherLink 5.7,2013-01-18 02:01:00,
2013-01-17 21:11:00,22.2,6.4,30.31,NW,315,13.0,23.0,50,0.00,,,-99.99,WeatherLink 5.7,2013-01-18 02:11:00,
2013-01-17 21:21:00,21.9,5.2,30.31,NW,315,14.0,23.0,48,0.00,,,-99.99,WeatherLink 5.7,2013-01-18 02:21:00,
2013-01-17 21:31:00,21.7,4.5,30.31,NW,315,12.0,21.0,47,0.00,,,-99.99,WeatherLink 5.7,2013-01-18 02:31:00,
2013-01-17 21:41:00,21.5,4.4,30.31,NW,315,11.0,22.0,47,0.00,,,-99.99,WeatherLink 5.7,2013-01-18 02:41:00,
2013-01-17 21:51:00,21.3,3.7,30.31,NW,315,11.0,21.0,46,0.00,,,-99.99,WeatherLink 5.7,2013-01-18 02:51:00,
2013-01-17 22:01:00,21.1,3.5,30.31,NW,315,11.0,19.0,46,0.00,,,-99.99,WeatherLink 5.7,2013-01-18 03:01:00,
2013-01-17 22:11:00,21.0,3.4,30.32,NW,315,12.0,21.0,46,0.00,,,-99.99,WeatherLink 5.7,2013-01-18 03:11:00,
2013-01-17 22:21:00,20.9,3.3,30.32,NW,315,11.0,19.0,46,0.00,,,-99.99,WeatherLink 5.7,2013-01-18 03:21:00,
2013-01-17 22:31:00,20.8,3.2,30.32,NW,315,10.0,19.0,46,0.00,,,-99.99,WeatherLink 5.7,2013-01-18 03:31:00,
2013-01-17 22:41:00,20.6,3.1,30.32,NW,315,7.0,13.0,46,0.00,,,-99.99,WeatherLink 5.7,2013-01-18 03:41:00,
2013-01-17 22:51:00,20.4,2.9,30.32,NW,315,6.0,11.0,46,0.00,,,-99.99,WeatherLink 5.7,2013-01-18 03:51:00,
2013-01-17 23:01:00,20.2,2.7,30.31,NNW,337,6.0,11.0,46,0.00,,,-99.99,WeatherLink 5.7,2013-01-18 04:01:00,
2013-01-17 23:11:00,20.0,3.4,30.32,NW,315,4.0,9.0,48,0.00,,,-99.99,WeatherLink 5.7,2013-01-18 04:11:00,
2013-01-17 23:21:00,19.9,4.2,30.32,NW,315,4.0,8.0,50,0.00,,,-99.99,WeatherLink 5.7,2013-01-18 04:21:00,
2013-01-17 23:31:00,19.9,4.7,30.32,NW,315,2.0,5.0,51,0.00,,,-99.99,WeatherLink 5.7,2013-01-18 04:31:00,
2013-01-17 23:41:00,20.1,4.0,30.32,NW,315,3.0,12.0,49,0.00,,,-99.99,WeatherLink 5.7,2013-01-18 04:41:00,
2013-01-17 23:51:00,20.3,4.6,30.33,NW,315,3.0,6.0,50,0.00,,,-99.99,WeatherLink 5.7,2013-01-18 04:51:00,